2018-111AH (43907 NORAD) Tracking and Keplerian Element Data

This shows tracking and keplerian element data for the satellite.

Feedback or suggestion? Click here.




ElementValue
Catalog43907
Name2018-111AH
Epoch Orbit392
Epoch Day21.82103288
Epoch Year2019
RAAN291.0388
Inclination97.2998
Eccentricity0.0022621
Argument of Perigee149.119
Mean Anonmoly211.1383
Mean Motion15.23993341
Decay Rate7.34E-06
L11 43907U 18111AH 19021.82103288 .00000734 00000-0 32996-4 0 9997
L22 43907 97.2998 291.0388 0022621 149.1190 211.1383 15.23993341 3921

Live tracking and technical data element details for 2018-111AH (NORAD 43907). 2018-111AH can be tracked NOW for your location showing map with azimuth and elevation plus other details from your city location.

Track the satellite on the map from your city or location and see movement details for azimuth, elevation, latitude, longitude, range, height, and movement on the map or in text.







IsCatalogInMostPopularTable: catalog: 43907, numindb: 22
Update: records affected: 1



GetName: 43907 2018-111AH

Hit Count: updated at: Wed, 23 Jan 2019 02:40:12 GMT